Location: Molino di Ancona
(43.6167°N, 13.3667°E)
Time: 13:55:09
(UTC+00:00)

CZ-4B R/B - Pass Details

Date: 15 December 2019
Orbit: 809 x 881 km, 99.1° (Epoch: 17 January)

Event Time Altitude Azimuth Distance (km) Brightness Sun altitude
Rises 04:17:58 0° 20° (NNE) 3,465 6.5 -23.4°
Reaches altitude 10° 04:20:27 10° 26° (NNE) 2,531 5.8 -23.0°
Maximum altitude 04:25:52 47° 100° (E) 1,149 4.3 -22.0°
Drops below altitude 10° 04:31:18 10° 173° (S) 2,531 5.9 -21.1°
Sets 04:33:46 0° 179° (S) 3,465 6.6 -20.6°
